Regional Weather Roundup
Issued by NWS

Home | Current Version | Previous Version | Text Only | Print | Product List | Glossary On
Versions: 1 2 3 4 5 6 7 8 9 10 11 12 13 14 15 16 17 18 19 20 21 22 23 24 25 26 27 28 29 30 31 32 33 34 35 36 37 38 39 40 41 42 43 44 45 46 47 48 49 50
000
ASUS43 KLSX 271157
RWRMO

WEATHER SUMMARY FOR MISSOURI
NATIONAL WEATHER SERVICE SPRINGFIELD MO
600 AM CST MON FEB 27 2017

NOTE: "FAIR" INDICATES FEW OR NO CLOUDS BELOW 12,000 FEET WITH NO
       SIGNIFICANT WEATHER AND/OR OBSTRUCTIONS TO VISIBILITY.
       CURRENT SKY AND/OR WEATHER CONDITIONS ARE NOT AVAILABLE FOR
       CHILLICOTHE AND FARMINGTON.

MOZ001>031-035>038-043-044-053-054-271300-
...NORTHERN AND WESTERN MISSOURI...

CITY           SKY/WX    TMP DP  RH WIND       PRES   REMARKS
KANSAS CTY INT CLEAR     29  29 100 SE5       30.01F FOG     WCI  24
6HR MIN TEMP:  26; 6HR MAX TEMP:  34;

LEE`S SUMMIT   PTCLDY    29  29 100 CALM      30.03S FOG
6HR MIN TEMP:  27; 6HR MAX TEMP:  36;

ST JOSEPH      FOG       27  25  92 CALM      30.03S VSB<1/4
6HR MIN TEMP:  23; 6HR MAX TEMP:  32;

CHILLICOTHE      N/A     25  25 100 CALM      30.05F
6HR MIN TEMP:  25; 6HR MAX TEMP:  35;


$$
MOZ066>068-077>081-088>096-101>105-271300-
...SOUTHWEST MISSOURI...

CITY           SKY/WX    TMP DP  RH WIND       PRES   REMARKS
SPRINGFIELD    CLEAR     35  26  69 SE9       30.02R WCI  28
6HR MIN TEMP:  35; 6HR MAX TEMP:  42;

JOPLIN         CLEAR     35  29  78 CALM      30.02R
6HR MIN TEMP:  31; 6HR MAX TEMP:  37;


$$
MOZ032>034-039>042-045>050-055>058-069>072-271300-
...CENTRAL MISSOURI...

CITY           SKY/WX    TMP DP  RH WIND       PRES   REMARKS
COLUMBIA       NOT AVBL
JEFFERSON CITY FOG       28  27  96 CALM      30.08S VSB 1/2
6HR MIN TEMP:  27; 6HR MAX TEMP:  39;

ROLLA          CLEAR     32  29  88 SE7       30.05R WCI  26
6HR MIN TEMP:  29; 6HR MAX TEMP:  38;

SEDALIA        FOG       27  26  96 E5        30.06S VSB 1/4 WCI  22
6HR MIN TEMP:  27; 6HR MAX TEMP:  36;

WARRENSBURG    CLEAR     23  23 100 N3        30.05R FOG

$$
MOZ051-052-059>065-271300-
...EAST CENTRAL MISSOURI...

CITY           SKY/WX    TMP DP  RH WIND       PRES   REMARKS
ST LOUIS INTL  PTCLDY    38  33  82 E5        30.11R
6HR MIN TEMP:  38; 6HR MAX TEMP:  43; 6HR PCP: TRACE;


$$
MOZ072>076-082>087-097>100-106>115-271300-
...SOUTH CENTRAL AND SOUTHEAST MISSOURI...

CITY           SKY/WX    TMP DP  RH WIND       PRES   REMARKS
CAPE GIRARDEAU CLOUDY    46  40  79 SE7       30.11S
6HR MIN TEMP:  44; 6HR MAX TEMP:  46; 6HR PCP:  0.04;

POPLAR BLUFF   MOCLDY    45  42  89 CALM      30.10R
6HR MIN TEMP:  45; 6HR MAX TEMP:  48; 6HR PCP: TRACE;

WEST PLAINS    CLEAR     32  26  78 CALM      30.07R
6HR MIN TEMP:  32; 6HR MAX TEMP:  45;


$$


USA.gov is the U.S. government's official web portal to all federal, state and local government web resources and services.